Terminal Aerodrome Forecast
Issued by NWS Cleveland, OH

Home | Current Version | Previous Version | Graphics & Text | Print | Product List | Glossary On
Versions: 1 2 3 4 5 6 7 8 9 10 11 12 13 14 15 16 17 18 19 20 21 22 23 24
000
FTUS41 KCLE 260700 AAA
TAFERI
TAF AMD
KERI 260712Z 2607/2706 26010G15KT 6SM BR OVC015
     FM261400 36005KT 5SM -RA BR OVC015
     FM261600 36008KT 2SM -RASN BR OVC008
     FM262100 32008KT 1SM -SN BR OVC008
     FM262300 26008KT P6SM OVC025
     FM270400 26008KT P6SM OVC050=

USA.gov is the U.S. government's official web portal to all federal, state and local government web resources and services.